This is the latest recevied weather packets stored in our database for station/object IONIA-WX. If no packets are shown the sender has not sent any weather packets the latest 10 day(s).
| Time | Temp. | Humidity | Pressure | Rain* | Wind** | Luminosity | Snow |
|---|---|---|---|---|---|---|---|
| 1787922018 | 13.33° C | 79% | 991.4 hPa | 0 mm | - | - | - |
| 1787921117 | 12.78° C | 88% | 991 hPa | 0 mm | - | - | - |
| 1787920217 | 12.22° C | 88% | 991 hPa | 0 mm | - | - | - |
| 1787919317 | 11.67° C | 88% | 991 hPa | 0 mm | - | - | - |
| 1787918423 | 11.11° C | 88% | 991 hPa | 0 mm | - | - | - |
| 1787917517 | 10.56° C | 87% | 990.3 hPa | 0 mm | - | - | - |
| 1787916617 | 10.56° C | 88% | 990.4 hPa | 0 mm | - | - | - |
| 1787915724 | 10.56° C | 88% | 990.4 hPa | 0 mm | - | - | - |
| 1787914818 | 11.11° C | 88% | 990.4 hPa | 0 mm | - | - | - |
| 1787913917 | 11.11° C | 89% | 989.2 hPa | 0 mm | - | - | - |
| 1787913017 | 11.11° C | 87% | 989.7 hPa | 0 mm | - | - | - |
| 1787912123 | 11.11° C | 87% | 989.7 hPa | 0 mm | - | - | - |
| 1787911217 | 11.67° C | 87% | 989.7 hPa | 0 mm | - | - | - |
| 1787910317 | 11.67° C | 87% | 989 hPa | 0 mm | - | - | - |
| 1787909423 | 11.67° C | 83% | 989.8 hPa | 0 mm | - | - | - |
| 1787908524 | 11.67° C | 83% | 989.8 hPa | 0 mm | - | - | - |
| 1787907617 | 11.67° C | 83% | 989.8 hPa | 0 mm | - | - | - |
| 1787907026 | 12.22° C | 83% | 988.6 hPa | 0 mm | - | - | - |
| 1787905824 | 12.22° C | 80% | 988.5 hPa | 0 mm | - | - | - |
| 1787904923 | 12.78° C | 80% | 988.6 hPa | 0 mm | - | - | - |
| 1787904019 | 12.78° C | 80% | 988.6 hPa | 0 mm | - | - | - |
| 1787903117 | 12.78° C | 78% | 988.3 hPa | 0 mm | - | - | - |
| 1787902223 | 12.78° C | 78% | 988.3 hPa | 0 mm | - | - | - |
| 1787901317 | 13.33° C | 78% | 988.3 hPa | 0 mm | - | - | - |
| 1787900421 | 13.89° C | 78% | 988.5 hPa | 0 mm | - | - | - |
* Rain latest hour (hover to see other rain measurements)
** Current wind speed in m/s (hover to see current wind gust speed)